This is the latest recevied weather packets stored in our database for station/object KN6WGU. If no packets are shown the sender has not sent any weather packets the latest 10 day(s).
| Time | Temp. | Humidity | Pressure | Rain* | Wind** | Luminosity | Snow |
|---|---|---|---|---|---|---|---|
| 1777771489 | 7.22° C | 61% | 1010.3 hPa | 0 mm | - | 0 W/m² | - |
| 1777771184 | 7.22° C | 61% | 1010.4 hPa | 0 mm | - | 0 W/m² | - |
| 1777770881 | 7.22° C | 60% | 1010.4 hPa | 0 mm | - | 0 W/m² | - |
| 1777770579 | 7.22° C | 58% | 1010.1 hPa | 0 mm | - | 0 W/m² | - |
| 1777770276 | 7.22° C | 57% | 1010.2 hPa | 0 mm | - | 0 W/m² | - |
| 1777769973 | 7.22° C | 56% | 1010.1 hPa | 0 mm | - | 0 W/m² | - |
| 1777769670 | 7.22° C | 57% | 1010 hPa | 0 mm | - | 0 W/m² | - |
| 1777769367 | 7.22° C | 55% | 1010.2 hPa | 0 mm | - | 0 W/m² | - |
| 1777769063 | 7.22° C | 55% | 1010.1 hPa | 0 mm | - | 0 W/m² | - |
| 1777768761 | 7.22° C | 55% | 1010.1 hPa | 0 mm | - | 0 W/m² | - |
| 1777768457 | 7.22° C | 54% | 1009.8 hPa | 0 mm | - | 1 W/m² | - |
| 1777768155 | 7.22° C | 53% | 1010 hPa | 0 mm | - | 1 W/m² | - |
| 1777767847 | 7.22° C | 55% | 1010 hPa | 0 mm | - | 1 W/m² | - |
| 1777767543 | 7.22° C | 56% | 1010.1 hPa | 0 mm | - | 2 W/m² | - |
| 1777767239 | 7.22° C | 58% | 1010.1 hPa | 0 mm | - | 4 W/m² | - |
| 1777766937 | 7.22° C | 58% | 1010.2 hPa | 0 mm | - | 6 W/m² | - |
| 1777766634 | 7.22° C | 56% | 1010.1 hPa | 0 mm | - | 8 W/m² | - |
| 1777766330 | 7.22° C | 58% | 1010 hPa | 0 mm | - | 11 W/m² | - |
| 1777766027 | 7.22° C | 59% | 1010.1 hPa | 0 mm | - | 16 W/m² | - |
| 1777765725 | 7.78° C | 56% | 1010 hPa | 0 mm | - | 17 W/m² | - |
| 1777765421 | 7.78° C | 58% | 1010 hPa | 0 mm | - | 18 W/m² | - |
| 1777765118 | 7.78° C | 57% | 1010 hPa | 0 mm | - | 21 W/m² | - |
| 1777764814 | 7.78° C | 57% | 1009.9 hPa | 0 mm | - | 24 W/m² | - |
| 1777764511 | 7.78° C | 56% | 1010 hPa | 0 mm | - | 30 W/m² | - |
| 1777764207 | 7.78° C | 55% | 1010.1 hPa | 0 mm | - | 32 W/m² | - |
* Rain latest hour (hover to see other rain measurements)
** Current wind speed in m/s (hover to see current wind gust speed)